N673EX KBHK-KMYL

Flight info

Callsign N673EX
Flight time N/A
Altitude 18000
Route KNRLY DAHNI BIL REEPO ZUBLI NUWLI FAXON
Aircraft C208/L-SDFGR/C

Departure

Time 2026-04-26 03:56
Airport Baker Municipal Airport (KBHK)

Arrival

Time N/A
Airport McCall Municipal Airport (KMYL)
Time Latitude Longitude Altitude Speed Heading
2026-04-26 03:53 46.35349 -104.26939 2969 ft 0 kts 273°
2026-04-26 03:54 46.35357 -104.26931 2969 ft 6 kts 131°
2026-04-26 03:54 46.35299 -104.26860 2969 ft 16 kts 124°
2026-04-26 03:54 46.35229 -104.26684 2969 ft 23 kts 101°
2026-04-26 03:54 46.35238 -104.26572 2969 ft 8 kts 133°
2026-04-26 03:55 46.35171 -104.26479 2969 ft 28 kts 137°
2026-04-26 03:55 46.34913 -104.26141 2977 ft 71 kts 137°
2026-04-26 03:55 46.34454 -104.25531 2994 ft 104 kts 140°
2026-04-26 03:55 46.33889 -104.24772 3150 ft 110 kts 157°
2026-04-26 03:56 46.33175 -104.24537 3313 ft 104 kts 204°
2026-04-26 03:56 46.32657 -104.25088 3535 ft 92 kts 257°
2026-04-26 03:56 46.32549 -104.26022 3718 ft 100 kts 259°
2026-04-26 03:56 46.32297 -104.27014 3944 ft 108 kts 255°
2026-04-26 03:57 46.32070 -104.28058 4223 ft 109 kts 258°
2026-04-26 03:57 46.31866 -104.29118 4471 ft 110 kts 258°
2026-04-26 03:57 46.31664 -104.30187 4712 ft 111 kts 257°
2026-04-26 03:57 46.31453 -104.31267 4950 ft 112 kts 257°
2026-04-26 03:58 46.31241 -104.32351 5188 ft 112 kts 257°
2026-04-26 03:58 46.31030 -104.33435 5427 ft 112 kts 257°
2026-04-26 03:58 46.30819 -104.34505 5667 ft 110 kts 257°
2026-04-26 03:58 46.30608 -104.35573 5916 ft 110 kts 258°
2026-04-26 03:59 46.30400 -104.36632 6152 ft 109 kts 257°
2026-04-26 03:59 46.30196 -104.37672 6386 ft 106 kts 257°
2026-04-26 03:59 46.29991 -104.38694 6621 ft 105 kts 258°
2026-04-26 03:59 46.29787 -104.39699 6887 ft 103 kts 258°
2026-04-26 04:00 46.29588 -104.40690 7153 ft 102 kts 258°
2026-04-26 04:00 46.29407 -104.41668 7407 ft 100 kts 261°
2026-04-26 04:00 46.29247 -104.42637 7674 ft 98 kts 261°
2026-04-26 04:00 46.29071 -104.43586 7934 ft 97 kts 259°
2026-04-26 04:01 46.28886 -104.44513 8198 ft 95 kts 260°
2026-04-26 04:01 46.28703 -104.45425 8453 ft 94 kts 259°
2026-04-26 04:01 46.28520 -104.46339 8703 ft 95 kts 260°
2026-04-26 04:01 46.28337 -104.47262 8946 ft 95 kts 260°
2026-04-26 04:02 46.28155 -104.48167 9189 ft 95 kts 260°
2026-04-26 04:02 46.27974 -104.49088 9436 ft 95 kts 261°
2026-04-26 04:02 46.27795 -104.50005 9683 ft 94 kts 261°
2026-04-26 04:02 46.27613 -104.50914 9935 ft 94 kts 261°
2026-04-26 04:03 46.27429 -104.51817 10154 ft 95 kts 261°
2026-04-26 04:03 46.27247 -104.52739 10357 ft 96 kts 261°
2026-04-26 04:03 46.27061 -104.53671 10545 ft 97 kts 261°
2026-04-26 04:03 46.26874 -104.54616 10748 ft 98 kts 261°
2026-04-26 04:04 46.26683 -104.55563 10959 ft 99 kts 261°
2026-04-26 04:04 46.26491 -104.56522 11162 ft 99 kts 261°
2026-04-26 04:04 46.26298 -104.57486 11379 ft 100 kts 261°
2026-04-26 04:04 46.26106 -104.58457 11584 ft 100 kts 261°
2026-04-26 04:05 46.25911 -104.59429 11802 ft 101 kts 260°
2026-04-26 04:05 46.25780 -104.60076 11945 ft 101 kts 261°
2026-04-26 04:05 46.25584 -104.61061 12158 ft 103 kts 260°
2026-04-26 04:05 46.25209 -104.62972 12572 ft 104 kts 261°
2026-04-26 04:06 46.24802 -104.64989 13008 ft 105 kts 260°
2026-04-26 04:06 46.24395 -104.67018 13453 ft 105 kts 260°
2026-04-26 04:06 46.23990 -104.69036 13899 ft 104 kts 260°
2026-04-26 04:06 46.23584 -104.71055 14270 ft 107 kts 260°
2026-04-26 04:07 46.23161 -104.73173 14563 ft 112 kts 259°
2026-04-26 04:07 46.22721 -104.75384 14868 ft 117 kts 259°
2026-04-26 04:07 46.22264 -104.77647 15164 ft 118 kts 259°
2026-04-26 04:07 46.21806 -104.79935 15470 ft 120 kts 258°
2026-04-26 04:08 46.21336 -104.82256 15787 ft 122 kts 258°
2026-04-26 04:08 46.20866 -104.84579 16067 ft 122 kts 257°
2026-04-26 04:08 46.20384 -104.86941 16371 ft 123 kts 256°
2026-04-26 04:08 46.19901 -104.89319 16692 ft 124 kts 256°
2026-04-26 04:09 46.19414 -104.91709 17017 ft 125 kts 256°
2026-04-26 04:09 46.18924 -104.94116 17337 ft 125 kts 256°
2026-04-26 04:09 46.18434 -104.96534 17668 ft 126 kts 256°
2026-04-26 04:09 46.17947 -104.98963 17982 ft 128 kts 255°
2026-04-26 04:10 46.17430 -105.01569 18038 ft 142 kts 256°
2026-04-26 04:10 46.16875 -105.04417 18042 ft 152 kts 256°
2026-04-26 04:10 46.16276 -105.07404 18048 ft 157 kts 256°
2026-04-26 04:10 46.15651 -105.10471 18050 ft 161 kts 255°
2026-04-26 04:11 46.15015 -105.13590 18050 ft 163 kts 255°
2026-04-26 04:11 46.14368 -105.16744 18047 ft 164 kts 255°
2026-04-26 04:11 46.13716 -105.19899 18043 ft 164 kts 255°
2026-04-26 04:11 46.13066 -105.23044 18045 ft 163 kts 255°
2026-04-26 04:12 46.12416 -105.26187 18046 ft 164 kts 255°
2026-04-26 04:12 46.11761 -105.29343 18044 ft 165 kts 256°
2026-04-26 04:12 46.11103 -105.32517 18043 ft 166 kts 256°
2026-04-26 04:12 46.10441 -105.35703 18043 ft 166 kts 256°
2026-04-26 04:13 46.09780 -105.38883 18043 ft 165 kts 256°
2026-04-26 04:13 46.09116 -105.42061 18043 ft 166 kts 256°
2026-04-26 04:13 46.08461 -105.45198 18040 ft 166 kts 256°
2026-04-26 04:13 46.07793 -105.48391 18038 ft 167 kts 256°
2026-04-26 04:14 46.07123 -105.51591 18039 ft 167 kts 256°
2026-04-26 04:14 46.06451 -105.54786 18037 ft 167 kts 256°
2026-04-26 04:14 46.05780 -105.57985 18030 ft 166 kts 256°
2026-04-26 04:14 46.05433 -105.61252 18033 ft 165 kts 265°
2026-04-26 04:15 46.05242 -105.64552 18032 ft 165 kts 265°
2026-04-26 04:15 46.05043 -105.67849 18035 ft 165 kts 265°
2026-04-26 04:15 46.04838 -105.71153 18036 ft 166 kts 265°
2026-04-26 04:15 46.04628 -105.74464 18036 ft 166 kts 265°
2026-04-26 04:16 46.04416 -105.77772 18038 ft 166 kts 265°
2026-04-26 04:16 46.04203 -105.81072 18039 ft 166 kts 265°
2026-04-26 04:16 46.03988 -105.84379 18038 ft 166 kts 265°
2026-04-26 04:16 46.03772 -105.87695 18035 ft 166 kts 265°
2026-04-26 04:17 46.03555 -105.91008 18034 ft 166 kts 265°
2026-04-26 04:17 46.03335 -105.94309 18036 ft 166 kts 265°
2026-04-26 04:17 46.03085 -105.98083 18062 ft 164 kts 265°
2026-04-26 04:17 46.02649 -106.04594 18063 ft 164 kts 265°
2026-04-26 04:18 46.02213 -106.11127 18069 ft 163 kts 265°
2026-04-26 04:18 46.01768 -106.17626 18072 ft 164 kts 265°
2026-04-26 04:18 46.01322 -106.24161 18071 ft 164 kts 265°
2026-04-26 04:18 46.00873 -106.30709 18072 ft 165 kts 266°
2026-04-26 04:19 46.00423 -106.37180 18072 ft 165 kts 266°
2026-04-26 04:19 45.99968 -106.43743 18069 ft 164 kts 266°
2026-04-26 04:19 45.99502 -106.50302 18068 ft 165 kts 266°
2026-04-26 04:19 45.99032 -106.56855 18071 ft 165 kts 266°
2026-04-26 04:20 45.98562 -106.63424 18066 ft 166 kts 266°
2026-04-26 04:20 45.98087 -106.70018 18065 ft 165 kts 265°
2026-04-26 04:20 45.97606 -106.76595 18073 ft 165 kts 266°
2026-04-26 04:20 45.97124 -106.83181 18072 ft 166 kts 266°
2026-04-26 04:21 45.96630 -106.89807 18070 ft 166 kts 266°
2026-04-26 04:21 45.96135 -106.96430 18072 ft 167 kts 266°
2026-04-26 04:21 45.95634 -107.03088 18077 ft 168 kts 266°
2026-04-26 04:21 45.95129 -107.09753 18074 ft 168 kts 265°
2026-04-26 04:22 45.94620 -107.16415 18066 ft 167 kts 265°
2026-04-26 04:22 45.94105 -107.23035 18075 ft 166 kts 265°
2026-04-26 04:22 45.93588 -107.29679 18079 ft 168 kts 266°
2026-04-26 04:22 45.93068 -107.36347 18079 ft 168 kts 265°
2026-04-26 04:23 45.92540 -107.43025 18081 ft 169 kts 265°
2026-04-26 04:23 45.92007 -107.49740 18083 ft 169 kts 265°
2026-04-26 04:23 45.91468 -107.56449 18086 ft 169 kts 265°
2026-04-26 04:23 45.90916 -107.63131 18065 ft 168 kts 264°
2026-04-26 04:24 45.90265 -107.69701 18083 ft 169 kts 264°
2026-04-26 04:24 45.89622 -107.76375 18082 ft 169 kts 264°
2026-04-26 04:24 45.88972 -107.83074 18079 ft 170 kts 264°
2026-04-26 04:24 45.88318 -107.89796 18080 ft 170 kts 264°
2026-04-26 04:25 45.87654 -107.96537 18089 ft 171 kts 264°